San Martin, CA

2:07 PM PST on December 04, 2016 (GMT -0800)
San Martin

Weather History for KE16 - April, 2013

Change the Weather History Date:

Wednesday, April 24, 2013

  Actual Average (KWVI) Record (KWVI)
Temperature  
Mean Temperature 57 °F 56 °F  
Max Temperature 66 °F 68 °F 82 °F (2004)
Min Temperature 48 °F 45 °F 36 °F (2008)
Degree Days  
Heating Degree Days 8    
Month to date heating degree days  
Since 1 July heating degree days  
Cooling Degree Days 0    
Month to date cooling degree days  
Year to date cooling degree days  
Growing Degree Days 7 (Base 50)    
Moisture  
Dew Point 48 °F    
Average Humidity 76    
Maximum Humidity 100    
Minimum Humidity 52    
Precipitation  
Precipitation 0.00 in - 1.38 in (1983)
Month to date precipitation  
Year to date precipitation  
Sea Level Pressure  
Sea Level Pressure 29.91 in    
Wind  
Wind Speed 5 mph (South)    
Max Wind Speed 13 mph    
Max Gust Speed 18 mph    
Visibility 9 miles    
Events      
T = Trace of Precipitation, MM = Missing Value Source: NWS Daily Summary

Daily Weather History Graph

Daily Weather History Graph

Search for Another Location

Airport or City:

Trip Planner

Search our weather history database for the weather conditions in past years. The results will help you decide how hot, cold, wet, or windy it might be!

Date:

Astronomy

Apr. 24, 2013 Rise Set
Actual Time 6:19 AM PDT 7:49 PM PDT
Civil Twilight 5:52 AM PDT 8:17 PM PDT
Nautical Twilight 5:19 AM PDT 8:50 PM PDT
Astronomical Twilight 4:44 AM PDT 9:24 PM PDT
Moon 6:59 PM PDT (4/24) 5:25 AM PDT (4/24)
Length of Visible Light 14h 24m
Length of Day
13h 29m
Waxing Gibbous, 98% of the Moon is Illuminated
Apr 24
Waxing Gibbous
Apr 25
Full
May 2
Last Quarter
May 9
New
May 17
First Quarter

Hourly Weather History & Observations

Time (PDT) Temp. Dew Point Humidity Pressure Visibility Wind Dir Wind Speed Gust Speed Precip Events Conditions
12:15 AM 50.0 °F 48.2 °F 94% 29.94 in 10.0 mi SSE 3.5 mph - N/A   Overcast
12:35 AM 51.8 °F 50.0 °F 94% 29.94 in 10.0 mi South 4.6 mph - N/A   Overcast
12:55 AM 50.0 °F 50.0 °F 100% 29.93 in 10.0 mi South 3.5 mph - N/A   Overcast
1:15 AM 50.0 °F 50.0 °F 100% 29.92 in 10.0 mi SSW 3.5 mph - N/A   Overcast
1:35 AM 50.0 °F 50.0 °F 100% 29.92 in 10.0 mi Calm Calm - N/A   Overcast
1:55 AM 50.0 °F 50.0 °F 100% 29.91 in 10.0 mi Calm Calm - N/A   Overcast
2:15 AM 50.0 °F 48.2 °F 94% 29.91 in 10.0 mi NE 3.5 mph - N/A   Overcast
2:35 AM 50.0 °F 48.2 °F 94% 29.89 in 10.0 mi Calm Calm - N/A   Overcast
2:55 AM 50.0 °F 48.2 °F 94% 29.89 in 10.0 mi Calm Calm - N/A   Overcast
3:15 AM 50.0 °F 48.2 °F 94% 29.89 in 9.0 mi Calm Calm - N/A   Overcast
3:55 AM 50.0 °F 48.2 °F 94% 29.88 in 8.0 mi WSW 4.6 mph - N/A   Overcast
4:15 AM 50.0 °F 48.2 °F 94% 29.88 in 9.0 mi North 4.6 mph - N/A   Overcast
4:35 AM 50.0 °F 48.2 °F 94% 29.87 in 9.0 mi NNE 3.5 mph - N/A   Overcast
4:55 AM 50.0 °F 48.2 °F 94% 29.87 in 7.0 mi Calm Calm - N/A   Overcast
5:15 AM 50.0 °F 48.2 °F 94% 29.87 in 8.0 mi Calm Calm - N/A   Overcast
5:35 AM 50.0 °F 48.2 °F 94% 29.88 in 7.0 mi SW 3.5 mph - N/A   Overcast
5:55 AM 48.2 °F 48.2 °F 100% 29.88 in 5.0 mi WSW 3.5 mph - N/A   Overcast
6:15 AM 48.2 °F 48.2 °F 100% 29.88 in 6.0 mi SSE 5.8 mph - N/A   Overcast
6:35 AM 48.2 °F 48.2 °F 100% 29.88 in 3.0 mi SSE 3.5 mph - N/A   Overcast
6:55 AM 48.2 °F 48.2 °F 100% 29.89 in 0.8 mi SW 4.6 mph - N/A   Overcast
7:15 AM 48.2 °F 48.2 °F 100% 29.90 in 1.0 mi West 3.5 mph - N/A   Overcast
7:35 AM 48.2 °F 48.2 °F 100% 29.91 in 2.0 mi Calm Calm - N/A   Overcast
7:55 AM 48.2 °F 48.2 °F 100% 29.92 in 5.0 mi ESE 4.6 mph - N/A   Overcast
8:15 AM 48.2 °F 46.4 °F 93% 29.92 in 8.0 mi SE 5.8 mph - N/A   Overcast
8:35 AM 50.0 °F 46.4 °F 87% 29.92 in 8.0 mi SSE 5.8 mph - N/A   Overcast
8:55 AM 50.0 °F 48.2 °F 94% 29.92 in 8.0 mi SSE 5.8 mph - N/A   Overcast
9:15 AM 50.0 °F 48.2 °F 94% 29.92 in 8.0 mi SE 3.5 mph - N/A   Overcast
9:35 AM 51.8 °F 46.4 °F 82% 29.92 in 9.0 mi SSE 6.9 mph - N/A   Mostly Cloudy
9:55 AM 55.4 °F 48.2 °F 77% 29.92 in 10.0 mi SE 8.1 mph - N/A   Scattered Clouds
10:15 AM 55.4 °F 48.2 °F 77% 29.92 in 10.0 mi SE 9.2 mph - N/A   Partly Cloudy
10:35 AM 55.4 °F 48.2 °F 77% 29.92 in 10.0 mi SE 8.1 mph - N/A   Clear
10:55 AM 59.0 °F 48.2 °F 67% 29.93 in 10.0 mi SSE 8.1 mph - N/A   Clear
11:15 AM 59.0 °F 48.2 °F 67% 29.92 in 10.0 mi South 8.1 mph - N/A   Clear
11:35 AM 59.0 °F 48.2 °F 67% 29.92 in 10.0 mi South 5.8 mph - N/A   Clear
11:55 AM 60.8 °F 48.2 °F 63% 29.92 in 10.0 mi SSW 10.4 mph - N/A   Clear
12:15 PM 60.8 °F 46.4 °F 59% 29.92 in 10.0 mi SSW 10.4 mph - N/A   Clear
12:35 PM 62.6 °F 46.4 °F 55% 29.91 in 10.0 mi SSW 10.4 mph - N/A   Clear
12:50 PM 62.6 °F 46.4 °F 55% 29.91 in 10.0 mi SW 10.4 mph - N/A   Clear
1:15 PM 62.6 °F 48.2 °F 59% 29.91 in 10.0 mi SSW 12.7 mph 17.3 mph N/A   Clear
1:35 PM 64.4 °F 46.4 °F 52% 29.91 in 10.0 mi SSW 11.5 mph - N/A   Clear
1:55 PM 64.4 °F 48.2 °F 56% 29.90 in 10.0 mi SSW 11.5 mph - N/A   Clear
2:15 PM 64.4 °F 48.2 °F 56% 29.90 in 10.0 mi SSW 11.5 mph 16.1 mph N/A   Clear
2:35 PM 64.4 °F 48.2 °F 56% 29.89 in 10.0 mi South 9.2 mph - N/A   Clear
2:55 PM 66.2 °F 48.2 °F 52% 29.89 in 10.0 mi SSW 11.5 mph 18.4 mph N/A   Clear
3:15 PM 66.2 °F 48.2 °F 52% 29.88 in 10.0 mi SSW 11.5 mph 16.1 mph N/A   Clear
3:35 PM 66.2 °F 48.2 °F 52% 29.88 in 10.0 mi SSW 9.2 mph - N/A   Clear
3:55 PM 66.2 °F 48.2 °F 52% 29.87 in 10.0 mi SSW 8.1 mph - N/A   Clear
4:15 PM 66.2 °F 48.2 °F 52% 29.87 in 10.0 mi SSW 8.1 mph - N/A   Clear
4:35 PM 66.2 °F 48.2 °F 52% 29.87 in 10.0 mi SW 10.4 mph - N/A   Clear
4:55 PM 66.2 °F 48.2 °F 52% 29.87 in 10.0 mi SW 10.4 mph - N/A   Clear
5:15 PM 66.2 °F 48.2 °F 52% 29.87 in 10.0 mi SW 12.7 mph - N/A   Clear
5:35 PM 66.2 °F 48.2 °F 52% 29.88 in 10.0 mi SW 8.1 mph - N/A   Clear
5:55 PM 64.4 °F 48.2 °F 56% 29.88 in 10.0 mi SSW 9.2 mph - N/A   Clear
6:15 PM 64.4 °F 48.2 °F 56% 29.89 in 10.0 mi SW 10.4 mph - N/A   Clear
6:35 PM 62.6 °F 48.2 °F 59% 29.89 in 10.0 mi SW 8.1 mph - N/A   Clear
6:55 PM 62.6 °F 48.2 °F 59% 29.90 in 10.0 mi SSW 8.1 mph - N/A   Clear
7:55 PM 59.0 °F 48.2 °F 67% 29.91 in 10.0 mi SW 3.5 mph - N/A   Clear
8:15 PM 59.0 °F 48.2 °F 67% 29.91 in 10.0 mi Calm Calm - N/A   Scattered Clouds
8:35 PM 57.2 °F 48.2 °F 72% 29.92 in 10.0 mi Calm Calm - N/A   Mostly Cloudy
8:55 PM 57.2 °F 48.2 °F 72% 29.93 in 10.0 mi Calm Calm - N/A   Overcast
9:15 PM 57.2 °F 48.2 °F 72% 29.94 in 10.0 mi ENE 3.5 mph - N/A   Overcast
9:35 PM 57.2 °F 48.2 °F 72% 29.95 in 10.0 mi Calm Calm - N/A   Overcast
9:55 PM 57.2 °F 48.2 °F 72% 29.96 in 10.0 mi Calm Calm - N/A   Overcast
10:15 PM 57.2 °F 48.2 °F 72% 29.97 in 10.0 mi Calm Calm - N/A   Overcast
10:35 PM 55.4 °F 48.2 °F 77% 29.98 in 10.0 mi East 3.5 mph - N/A   Overcast
10:55 PM 55.4 °F 48.2 °F 77% 29.98 in 10.0 mi Calm Calm - N/A   Overcast
11:15 PM 55.4 °F 48.2 °F 77% 29.98 in 10.0 mi West 3.5 mph - N/A   Overcast
11:35 PM 55.4 °F 48.2 °F 77% 29.98 in 10.0 mi Calm Calm - N/A   Mostly Cloudy
11:50 PM 55.4 °F 48.2 °F 77% 29.99 in 10.0 mi Calm Calm - N/A   Mostly Cloudy